Location: Quedlinburg
(51.7921°N, 11.1414°E)
Time: 13:41:48
(UTC+02:00)

RS-15 - Pass Details

Date: 15 March 2026
Orbit: 1893 x 2152 km, 64.8° (Epoch: 22 April)

Event Time Altitude Azimuth Distance (km) Brightness Sun altitude
Rises 20:39:21 0° 208° (SSW) 5,263 10.3 -21.7°
Reaches altitude 10° 20:42:34 10° 207° (SSW) 4,270 9.8 -22.1°
Maximum altitude 20:53:22 74° 125° (SE) 1,979 7.8 -23.6°
Drops below altitude 10° 21:04:33 10° 43° (NE) 4,409 9.8 -25.1°
Sets 21:07:55 0° 42° (NE) 5,442 10.3 -25.5°
